Showing default

MICROSCOPE, 41457

Orbit data source: Space-Track

MICROSCOPE, 41457 is a payload satellite owned by CNES (FR) in SSO that was launched on Mon, 25 Apr 2016 UTC via a SOYUZ-ST-A launch vehicle from the French Guiana (FRGUI). Payload-class satellites include a variety of spacecraft equipped with specific instruments for various scientific and technological missions. These include communications satellites like Starlink; space stations such as the ISS; scientific satellites like the Hubble; Earth observation satellites from companies like Planet Labs, Umbra, and HawkEye 360; GPS; miniature CubeSats for education and research; and military/defense satellites.

Loading next visibility...
Identifier
41457, 2016-025B
Orbit
SSO
Country
Flag of FRFR
Related business
Manufacturer
ONERA/CNES
Mission
Non-operational Civil Science
Bus & Motor
MYRIADE, Unknown motor
Mass
303 kg wet, 303 kg dry
Launch date (UTC)
2016-04-25 (9 years ago)
Launch vehicle
SOYUZ-ST-A
Launch site
French Guiana (FRGUI)
Object type
Payload
Rocket body
Debris
Shape & HBR
Box + 2 Pan, 0.7 m
Radar Cross Section
2.015 m², Large (>1 m²)

Expand to show TLE details & history
Last TLE update: 21 hours ago

TLE from 21 hours ago
0 MICROSCOPE
1 41457U 16025B   25261.03515781  .00000889  00000-0  19995-3 0  9992
2 41457  98.2543 270.3758 0001255  72.3126 287.8210 14.58861293499030
Epoch: 2025-09-18T00:50Z
TLE epoch observation values (Epoch: 2025-09-18T00:50:37.634Z)
Latitude
-0.00006°
Longitude
-99.48354°
Altitude
699.563 km
Speed
7.506 km/s
True Right ascension
18h 01m 30s
True Declination
0° 00' 00"
Sunlit
Object was in daylight at epoch
Visualization orbit readout
Latitude
Unknown
Longitude
Unknown
Altitude
Unknown
Speed
Unknown
Apparent Right ascension
Unknown
Apparent Declination
Unknown
Sunlit
N/A
Visualization observer readout
Local Sidereal Time
15:04:41
Azimuth
Unknown
Elevation
Unknown
Doppler factor
Unknown
Orbital elements
Apogee altitude
694.826 km
Perigee altitude
693.051 km
Semi-major axis
7,072.075 km
Eccentricity
0.00013
Inclination
98.2543°
RAAN
270.3758°
Arg. of periapsis
72.3126°
True anomaly
287.80731°
Mean anomaly
287.821°
Eccentric anomaly
287.81415°
Mean motion
3.64941 °/min
Orbital period
98.65 mins
BSTAR
0.00019995
Loading maneuver chart data...
Computing Atmospheric mass density...
Loading historical data...
Loading historical data...
Loading historical data...
Loading historical data...
Loading historical data...
Loading historical data...
Loading historical data...

Documentation

Showing up to 5 results
|